Regional Weather Roundup
Issued by NWS Newport/Morehead, NC

Current Version | Previous Version | Graphics & Text | Print | Product List | Glossary On
Versions: 1 2 3 4 5 6 7 8 9 10 11 12 13 14 15 16 17 18 19 20 21 22 23 24 25 26 27 28 29 30 31 32 33 34 35 36 37 38 39 40 41 42 43 44 45 46 47 48 49 50
000 ASUS42 KMHX 270525 RWRMHX WEATHER ROUNDUP FOR EASTERN NORTH CAROLINA NATIONAL WEATHER SERVICE NEWPORT/MOREHEAD CITY NC 100 AM EDT SAT AUG 27 2016 NOTE: "FAIR" INDICATES FEW OR NO CLOUDS BELOW 12,000 FEET WITH NO SIGNIFICANT WEATHER AND/OR OBSTRUCTIONS TO VISIBILITY NCZ015>017-031-032-045>047-102-103-270600- NORTH COAST CITY SKY/WX TMP DP RH WIND PRES REMARKS EDENTON CLEAR 81 75 81 SW6 30.09S ELIZABETH CITY CLEAR 75 73 93 S3 30.08S KITTY HAWK CLEAR 79 76 90 SW5 30.07S MANTEO CLEAR 79 74 85 SW7 30.08S $$ NCZ045>047-081-094-103-104-270600- CENTRAL COAST CITY SKY/WX TMP DP RH WIND PRES REMARKS FRISCO CLEAR 81 71 71 S5 30.08S $$ NCZ095-097-098-100-101-270600- SOUTHERN COAST CITY SKY/WX TMP DP RH WIND PRES REMARKS BEAUFORT CLEAR 75 71 87 CALM 30.08S CEDAR ISLAND NOT AVBL JACKSONVILLE CLEAR 73 71 93 CALM 30.08S PINEY ISLAND NOT AVBL WILMINGTON CLEAR 74 71 91 CALM 30.09R $$ NCZ011>013-027>030-043-044-078>080-089-090>093-098-270600- COASTAL PLAIN CITY SKY/WX TMP DP RH WIND PRES REMARKS AHOSKIE CLEAR 75 74 95 CALM 30.09R CLINTON CLEAR 75 74 95 CALM 30.10S ELIZABETHTOWN CLEAR 75 74 95 CALM 30.10R GOLDSBORO CLEAR 75 68 78 CALM 30.09 GREENVILLE CLEAR 77 73 88 CALM 30.10S HAVELOCK CLEAR 74 71 91 CALM 30.10R KENANSVILLE CLEAR 73 72 94 CALM 30.10S KINSTON CLEAR 75 73 92 S3 30.09F NEW BERN CLEAR 74 71 91 CALM 30.10S RICHLANDS CLEAR 72 71 97 CALM 30.10R ROCKY MOUNT CLEAR 78 75 90 S6 30.09S WASHINGTON CLEAR 76 73 88 SW3 30.09S WHITEVILLE CLEAR 74 71 92 CALM 30.09S $$ AMZ130-135-150-152-154-156-158-170-250-252-270-ANZ085-086-088-633-658-670-270600- MARINE OBSERVATIONS STATION/POSITION TIME TEMP WIND PRES WAVE SWELL AIR SEA DIR/SP/G HT/PER HT/PER (UTC) (F) (DEG/KT/KT) (MB) (FT/S) (FT/S) CHESAPEAKE LIGHT NOT AVBL 64 E VA BEACH 0450 81 81 230/ 12/ 14 1018.0 2/ 8 2/ 8 DUCK 0500 81 76 220/ 10/ 12 1017.9 2 E DUCK 0411 79 N/A 2/ 8 OREGON INLET 0500 81 82 210/ 7/ 8 1018.5 13E OREGON INLT 0500 80 N/A 2/ 8 2/ 8 HATTERAS CG 0500 81 83 180/ 1/ 3 1018.3 DIAMOND BUOY 0450 81 85 160/ 6/ 8 1018.6 2/ 7 2/ 7 CAPE LOOKOUT 0500 81 140/ 6/ 6 1018.5 BEAUFORT LAB 0500 80 82 150/ 4/ 5 1018.1 30 SE NEW RVR IN 0508 82 84 130/ 8/ 10 1018.5 30 SE NEW RVR IN 0425 84 N/A 3/12 2/12 27 SE WRIGHTSVLE 0508 82 84 130/ 6/ 10 1018.7 5 SE WRIGHTSVLE 0508 82 83 150/ 6/ 8 1019.7 225 S CAPE HAT 0450 82 84 90/ 10/ 12 1016.8 5/10 5/10 41 SE CHARLESTON 0450 82 84 60/ 6/ 8 1017.8 2/11 2/11 $$

USA.gov is the U.S. government's official web portal to all federal, state and local government web resources and services.